1328140828939,0.783887
1328140888939,0.780767
1328140948939,0.783209
1328141008939,0.792306
1328141068939,0.785291
1328141128939,0.791838
1328141188939,0.783168
1328141248939,0.786512
1328141308939,0.781204
1328141368939,0.781279
1328141428939,0.783281
1328141488939,0.783456
1328141548939,0.784235
1328141608939,0.787865
1328141668939,0.786253
1328141728939,0.784534
1328141788939,0.780330
1328141848939,0.780711
1328141908939,0.790724
1328141968939,0.784458
1328142028939,0.782503
1328142088939,0.790174
1328142148939,0.787049
1328142208939,0.780850
1328142268939,0.791152
1328142328939,0.782284
1328142388939,0.781828
1328142448939,0.782402
1328142508939,0.786548
1328142568939,0.780932
1328142628939,0.782372
1328142688939,0.782357
1328142748939,0.783320
1328142808939,0.784829
1328142868939,0.783891
1328142928939,0.775352
1328142988939,0.782294
1328143048939,0.779972
1328143108939,0.779114
1328143168939,0.790347
1328143228939,0.784254
1328143288939,0.786358
1328143348939,0.788736
1328143408939,0.785618
1328143468939,0.782388
1328143528939,0.779567
1328143588939,0.784667
1328143648939,0.779060
1328143708939,0.788041
1328143768939,0.786060
1328143828939,0.785416
1328143888939,0.780235
1328143948939,0.792591
1328144008939,0.787657
1328144068939,0.789268
1328144128939,0.783252
1328144188939,0.784178
1328144248939,0.781335
1328144308939,0.788567
1328144368939,0.784308
1328144428949,0.787029
1328144488949,0.789340
1328144548949,0.782646
1328144608949,0.789504
1328144668949,0.787720
1328144728949,0.777661
1328144788949,0.783151
1328144848949,0.775347
1328144908949,0.780878
1328144968949,0.778250
1328145028949,0.784171
1328145088949,0.784791
1328145148949,0.779483
1328145208949,0.782779
1328145268949,0.785745
1328145328949,0.787931
1328145388949,0.780801
1328145448949,0.783239
1328145508949,0.789693
1328145568949,0.778029
1328145628949,0.776668
1328145688949,0.786355
1328145748949,0.788361
1328145808949,0.781097
1328145868949,0.783138
1328145928949,0.784954
1328145988949,0.776916
1328146048949,0.778805
1328146108949,0.786547
1328146168949,0.780798
1328146228949,0.781678
1328146288949,0.780066
1328146348949,0.786204
1328146408949,0.790250
1328146468949,0.781222
1328146528949,0.781869
1328146588949,0.784723
1328146648949,0.785851
1328146708949,0.784579
1328146768949,0.782358
1328146828949,0.778445
1328146888949,0.790179
1328146948949,0.782130
1328147008949,0.787243
1328147068949,0.777100
1328147128949,0.784855
1328147188949,0.781291
1328147248949,0.776178
1328147308949,0.779711
1328147368949,0.778084
1328147428949,0.783557
1328147488949,0.771683
1328147548949,0.781045
1328147608949,0.778362
1328147668949,0.780484
1328147728949,0.783161
1328147788949,0.778412
1328147848949,0.780055
1328147908949,0.770906
1328147968949,0.780541
1328148028960,0.775942
1328148088960,0.771631
1328148148960,0.782040
1328148208960,0.773442
1328148268960,0.777226
1328148328960,0.780466
1328148388960,0.783834
1328148448960,0.778072
1328148508960,0.780049
1328148568960,0.778335
1328148628960,0.776479
1328148688960,0.780303
1328148748960,0.777090
1328148808960,0.781447
1328148868960,0.776153
1328148928960,0.773114
1328148988960,0.776622
1328149048960,0.776711
1328149108960,0.774494
1328149168960,0.775924
1328149228960,0.771193
1328149288960,0.777652
1328149348960,0.776832
1328149408960,0.769432
1328149468960,0.783793
1328149528960,0.777428
1328149588960,0.777702
1328149648960,0.779421
1328149708960,0.774619
1328149768960,0.779650
1328149828960,0.780088
1328149888960,0.775683
1328149948960,0.770953
1328150008960,0.785231
1328150068960,0.782515
1328150128960,0.773414
1328150188960,0.780326
1328150248960,0.774050
1328150308960,0.773270
1328150368960,0.775730
1328150428960,0.773466
1328150488960,0.775495
1328150548960,0.778385
1328150608960,0.778235
1328150668960,0.779894
1328150728960,0.774114
1328150788960,0.770595
1328150848960,0.773813
1328150908960,0.780067
1328150968960,0.766474
1328151028960,0.777024
1328151088960,0.772952
1328151148960,0.767630
1328151208960,0.770801
1328151268960,0.772172
1328151328960,0.768322
1328151388960,0.775246
1328151448960,0.775334
1328151508960,0.774666
1328151568960,0.774887
1328151628970,0.774247
1328151688970,0.772775
1328151748970,0.781745
1328151808970,0.781417
1328151868970,0.773543
1328151928970,0.781642
1328151988970,0.771645
1328152048970,0.774289
1328152108970,0.782477
1328152168970,0.772348
1328152228970,0.769664
1328152288970,0.779437
1328152348970,0.774131
1328152408970,0.775613
1328152468970,0.776403
1328152528970,0.780234
1328152588970,0.774724
1328152648970,0.781461
1328152708970,0.780177
1328152768970,0.785434
1328152828970,0.780756
1328152888970,0.781774
1328152948970,0.780344
1328153008970,0.780808
1328153068970,0.777815
1328153128970,0.781006
1328153188970,0.779295
1328153248970,0.776501
1328153308970,0.778086
1328153368970,0.787086
1328153428970,0.776442
1328153488970,0.780116
1328153548970,0.770135
1328153608970,0.777470
1328153668970,0.780046
1328153728970,0.786152
1328153788970,0.778127
1328153848970,0.781034
1328153908970,0.781611
1328153968970,0.782403
1328154028970,0.787944
1328154088970,0.783344
1328154148970,0.785933
1328154208970,0.785888
1328154268970,0.788878
1328154328970,0.791650
1328154388970,0.789388
1328154448970,0.793514
1328154508970,0.796582
1328154568970,0.790373
1328154628970,0.792343
1328154688970,0.783573
1328154748970,0.792354
1328154808970,0.791919
1328154868970,0.793114
1328154928970,0.791047
1328154988970,0.783959
1328155048970,0.788396
1328155108970,0.779611
1328155168970,0.783984
1328155228981,0.778653
1328155288981,0.773539
1328155348981,0.775336
1328155408981,0.772541
1328155468981,0.779159
1328155528981,0.778384
1328155588981,0.780980
1328155648981,0.774099
1328155708981,0.779567
1328155768981,0.781017
1328155828981,0.786111
1328155888981,0.782794
1328155948981,0.780365
1328156008981,0.776197
1328156068981,0.777297
1328156128981,0.773392
1328156188981,0.773661
1328156248981,0.776499
1328156308981,0.781259
1328156368981,0.770736
1328156428981,0.768290
1328156488981,0.782590
1328156548981,0.776380
1328156608981,0.773288
1328156668981,0.772155
1328156728981,0.773277
1328156788981,0.776534
1328156848981,0.775039
1328156908981,0.772452
1328156968981,0.769666
1328157028981,0.770663
1328157088981,0.781821
1328157148981,0.766293
1328157208981,0.772723
1328157268981,0.766585
1328157328981,0.773071
1328157388981,0.775595
1328157448981,0.777086
1328157508981,0.775356
1328157568981,0.771601
1328157628981,0.775732
1328157688981,0.776429
1328157748981,0.773139
1328157808981,0.776656
1328157868981,0.774281
1328157928981,0.774825
1328157988981,0.770227
1328158048981,0.776742
1328158108981,0.769422
1328158168981,0.778564
1328158228981,0.771685
1328158288981,0.775125
1328158348981,0.776051
1328158408981,0.772114
1328158468981,0.765684
1328158528981,0.777777
1328158588981,0.773921
1328158648981,0.774624
1328158708981,0.774912
1328158768981,0.765825
1328158828992,0.770610
1328158888992,0.773151
1328158948992,0.772358
1328159008992,0.776024
1328159068992,0.777550
1328159128992,0.773819
1328159188992,0.774050
1328159248992,0.776674
1328159308992,0.768775
1328159368992,0.769211
1328159428992,0.773532
1328159488992,0.779061
1328159548992,0.776088
1328159608992,0.775197
1328159668992,0.774096
1328159728992,0.776597
1328159788992,0.775721
1328159848992,0.776351
1328159908992,0.775288
1328159968992,0.784447
1328160028992,0.782802
1328160088992,0.772834
1328160148992,0.781658
1328160208992,0.780056
1328160268992,0.779666
1328160328992,0.780817
1328160388992,0.774612
1328160448992,0.773845
1328160508992,0.781137
1328160568992,0.775419
1328160628992,0.773389
1328160688992,0.771040
1328160748992,0.775426
1328160808992,0.778139
1328160868992,0.781144
1328160928992,0.776805
1328160988992,0.779043
1328161048992,0.776701
1328161108992,0.778568
1328161168992,0.785924
1328161228992,0.779358
1328161288992,0.773857
1328161348992,0.782074
1328161408992,0.778330
1328161468992,0.773981
1328161528992,0.775003
1328161588992,0.772408
1328161648992,0.780095
1328161708992,0.775590
1328161768992,0.775055
1328161828992,0.775458
1328161888992,0.770921
1328161948992,0.774229
1328162008992,0.776396
1328162068992,0.774901
1328162128992,0.767672
1328162188992,0.775001
1328162248992,0.780098
1328162308992,0.772013
1328162368992,0.779643
1328162429003,0.780216
1328162489003,0.769560
1328162549003,0.771111
1328162609003,0.774304
1328162669003,0.770983
1328162729003,0.772213
1328162789003,0.774729
1328162849003,0.762535
1328162909003,0.770040
1328162969003,0.771626
1328163029003,0.771329
1328163089003,0.773545
1328163149003,0.771796
1328163209003,0.774433
1328163269003,0.776175
1328163329003,0.778654
1328163389003,0.773329
1328163449003,0.773581
1328163509003,0.769152
1328163569003,0.772709
1328163629003,0.773377
1328163689003,0.767416
1328163749003,0.777307
1328163809003,0.777923
1328163869003,0.774305
1328163929003,0.774800
1328163989003,0.772300
1328164049003,0.776470
1328164109003,0.772823
1328164169003,0.777864
1328164229003,0.777596
1328164289003,0.771349
1328164349003,0.765843
1328164409003,0.773488
1328164469003,0.769335
1328164529003,0.773781
1328164589003,0.769320
1328164649003,0.776836
1328164709003,0.765763
1328164769003,0.763953
1328164829003,0.771135
1328164889003,0.768198
1328164949003,0.772224
1328165009003,0.779279
1328165069003,0.777890
1328165129003,0.776737
1328165189003,0.774823
1328165249003,0.780416
1328165309003,0.779014
1328165369003,0.777694
1328165429003,0.777698
1328165489003,0.776009
1328165549003,0.776875
1328165609003,0.778224
1328165669003,0.783668
1328165729003,0.778370
1328165789003,0.779252
1328165849003,0.781432
1328165909003,0.780929
1328165969003,0.778803
1328166029014,0.777176
1328166089014,0.784307
1328166149014,0.777133
1328166209014,0.781390
1328166269014,0.782734
1328166329014,0.782121
1328166389014,0.784757
1328166449014,0.786387
1328166509014,0.778481
1328166569014,0.777352
1328166629014,0.784866
1328166689014,0.780419
1328166749014,0.782626
1328166809014,0.779184
1328166869014,0.773489
1328166929014,0.774305
1328166989014,0.779214
1328167049014,0.775601
1328167109014,0.775559
1328167169014,0.774610
1328167229014,0.779975
1328167289014,0.781492
1328167349014,0.774250
1328167409014,0.776189
1328167469014,0.780491
1328167529014,0.776445
1328167589014,0.775890
1328167649014,0.785953
1328167709014,0.783932
1328167769014,0.787513
1328167829014,0.782140
1328167889014,0.775893
1328167949014,0.784671
1328168009014,0.780442
1328168069014,0.778233
1328168129014,0.781851
1328168189014,0.788154
1328168249014,0.780780
1328168309014,0.781010
1328168369014,0.785967
1328168429014,0.779787
1328168489014,0.781792
1328168549014,0.780617
1328168609014,0.780833
1328168669014,0.783015
1328168729014,0.776815
1328168789014,0.784841
1328168849014,0.779041
1328168909014,0.777737
1328168969014,0.778801
1328169029014,0.788390
1328169089014,0.780710
1328169149014,0.780889
1328169209014,0.781558
1328169269014,0.779741
1328169329014,0.783741
1328169389014,0.788018
1328169449014,0.775322
1328169509014,0.780382
1328169569014,0.783471
1328169629025,0.780608
1328169689025,0.777601
1328169749025,0.779680
1328169809025,0.782923
1328169869025,0.780344
1328169929025,0.781321
1328169989025,0.778460
1328170049025,0.780315
1328170109025,0.779141
1328170169025,0.779221
1328170229025,0.782621
1328170289025,0.783037
1328170349025,0.778619
1328170409025,0.778540
1328170469025,0.779488
1328170529025,0.771879
1328170589025,0.772833
1328170649025,0.783568
1328170709025,0.778713
1328170769025,0.775927
1328170829025,0.775666
1328170889025,0.781653
1328170949025,0.782530
1328171009025,0.783405
1328171069025,0.777623
1328171129025,0.774228
1328171189025,0.770833
1328171249025,0.780378
1328171309025,0.778663
1328171369025,0.782934
1328171429025,0.776300
1328171489025,0.775961
1328171549025,0.776057
1328171609025,0.782870
1328171669025,0.777520
1328171729025,0.785818
1328171789025,0.784521
1328171849025,0.784589
1328171909025,0.786848
1328171969025,0.781418
1328172029025,0.785610
1328172089025,0.783343
1328172149025,0.778862
1328172209025,0.786983
1328172269025,0.784905
1328172329025,0.783887
1328172389025,0.783916
1328172449025,0.791702
1328172509025,0.785116
1328172569025,0.790441
1328172629025,0.786377
1328172689025,0.787529
1328172749025,0.791745
1328172809025,0.787207
1328172869025,0.793938
1328172929025,0.791638
1328172989025,0.783244
1328173049025,0.790144
1328173109025,0.794369
1328173169025,0.782389
1328173229036,0.790118
1328173289036,0.792022
1328173349036,0.791773
1328173409036,0.804231
1328173469036,0.808652
1328173529036,0.805812
1328173589036,0.803833
1328173649036,0.818082
1328173709036,0.815602
1328173769036,0.810419
1328173829036,0.821331
1328173889036,0.817344
1328173949036,0.818852
1328174009036,0.822845
1328174069036,0.817426
1328174129036,0.812708
1328174189036,0.817886
1328174249036,0.812265
1328174309036,0.808893
1328174369036,0.807873
1328174429036,0.810263
1328174489036,0.803561
1328174549036,0.803160
1328174609036,0.805013
1328174669036,0.799734
1328174729036,0.798131
1328174789036,0.794921
1328174849036,0.791386
1328174909036,0.796027
1328174969036,0.791157
1328175029036,0.795971
1328175089036,0.789413
1328175149036,0.787777
1328175209036,0.792229
1328175269036,0.798892
1328175329036,0.789840
1328175389036,0.791925
1328175449036,0.793062
1328175509036,0.790804
1328175569036,0.794289
1328175629036,0.789365
1328175689036,0.790606
1328175749036,0.794537
1328175809036,0.792138
1328175869036,0.788417
1328175929036,0.794490
1328175989036,0.790952
1328176049036,0.801101
1328176109036,0.794658
1328176169036,0.799864
1328176229036,0.797630
1328176289036,0.799018
1328176349036,0.798372
1328176409036,0.795932
1328176469036,0.801839
1328176529036,0.795596
1328176589036,0.800068
1328176649036,0.796636
1328176709036,0.793201
1328176769036,0.795346
1328176829048,0.788445
1328176889048,0.801849
1328176949048,0.801372
1328177009048,0.800672
1328177069048,0.798074
1328177129048,0.791518
1328177189048,0.795455
1328177249048,0.792877
1328177309048,0.799271
1328177369048,0.788982
1328177429048,0.797696
1328177489048,0.797751
1328177549048,0.792831
1328177609048,0.799283
1328177669048,0.796370
1328177729048,0.799879
1328177789048,0.797548
1328177849048,0.792351
1328177909048,0.796963
1328177969048,0.799768
1328178029048,0.797495
1328178089048,0.788794
1328178149048,0.799432
1328178209048,0.800619
1328178269048,0.793543
1328178329048,0.799738
1328178389048,0.793410
1328178449048,0.794330
1328178509048,0.794892
1328178569048,0.790722
1328178629048,0.787597
1328178689048,0.789119
1328178749048,0.790607
1328178809048,0.794410
1328178869048,0.792450
1328178929048,0.788755
1328178989048,0.788768
1328179049048,0.792142
1328179109048,0.783733
1328179169048,0.785887
1328179229048,0.789243
1328179289048,0.789800
1328179349048,0.791809
1328179409048,0.795445
1328179469048,0.781707
1328179529048,0.792261
1328179589048,0.787580
1328179649048,0.787189
1328179709048,0.787046
1328179769048,0.786802
1328179829048,0.783548
1328179889048,0.782973
1328179949048,0.785923
1328180009048,0.789690
1328180069048,0.783769
1328180129048,0.786321
1328180189048,0.779514
1328180249048,0.787301
1328180309048,0.787408
1328180369048,0.782331
1328180429059,0.781084
1328180489059,0.783747
1328180549059,0.785702
1328180609059,0.781302
1328180669059,0.784795
1328180729059,0.785775
1328180789059,0.791140
1328180849059,0.790628
1328180909059,0.786412
1328180969059,0.786840
1328181029059,0.776656
1328181089059,0.780361
1328181149059,0.784642
1328181209059,0.787504
1328181269059,0.793986
1328181329059,0.792341
1328181389059,0.788671
1328181449059,0.788445
1328181509059,0.786261
1328181569059,0.788063
1328181629059,0.786710
1328181689059,0.790914
1328181749059,0.788809
1328181809059,0.788258
1328181869059,0.794742
1328181929059,0.799625
1328181989059,0.792821
1328182049059,0.789528
1328182109059,0.789774
1328182169059,0.791218
1328182229059,0.791343
1328182289059,0.790968
1328182349059,0.786057
1328182409059,0.788279
1328182469059,0.789967
1328182529059,0.785313
1328182589059,0.788172
1328182649059,0.789951
1328182709059,0.787414
1328182769059,0.787448
1328182829059,0.788271
1328182889059,0.787739
1328182949059,0.787069
1328183009059,0.792599
1328183069059,0.784316
1328183129059,0.790376
1328183189059,0.795074
1328183249059,0.788034
1328183309059,0.794272
1328183369059,0.787761
1328183429059,0.785241
1328183489059,0.787667
1328183549059,0.791603
1328183609059,0.800594
1328183669059,0.803628
1328183729059,0.796823
1328183789059,0.802357
1328183849059,0.785653
1328183909059,0.790019
1328183969059,0.790310
1328184029071,0.780977
1328184089071,0.791930
1328184149071,0.785412
1328184209071,0.787353
1328184269071,0.779272
1328184329071,0.788685
1328184389071,0.790365
1328184449071,0.784250
1328184509071,0.782476
1328184569071,0.784212
1328184629071,0.787127
1328184689071,0.774943
1328184749071,0.786632
1328184809071,0.785797
1328184869071,0.791143
1328184929071,0.783066
1328184989071,0.787989
1328185049071,0.778609
1328185109071,0.784877
1328185169071,0.784775
1328185229071,0.785459
1328185289071,0.788442
1328185349071,0.787539
1328185409071,0.788002
1328185469071,0.777249
1328185529071,0.779108
1328185589071,0.779009
1328185649071,0.784385
1328185709071,0.782051
1328185769071,0.780232
1328185829071,0.779625
1328185889071,0.783296
1328185949071,0.782611
1328186009071,0.788903
1328186069071,0.785347
1328186129071,0.787389
1328186189071,0.783629
1328186249071,0.774847
1328186309071,0.777467
1328186369071,0.780080
1328186429071,0.778841
1328186489071,0.785481
1328186549071,0.787992
1328186609071,0.792579
1328186669071,0.785111
1328186729071,0.784295
1328186789071,0.785610
1328186849071,0.785968
1328186909071,0.778471
1328186969071,0.779968
1328187029071,0.780078
1328187089071,0.780792
1328187149071,0.778626
1328187209071,0.784014
1328187269071,0.780628
1328187329071,0.782509
1328187389071,0.780275
1328187449071,0.785929
1328187509071,0.783508
1328187569071,0.787575
1328187629099,0.779345
1328187689099,0.784938
1328187749099,0.787938
1328187809099,0.787641
1328187869099,0.787824
1328187929099,0.784095
1328187989099,0.778321
1328188049099,0.781104
1328188109099,0.777213
1328188169099,0.784090
1328188229099,0.782971
1328188289099,0.780980
1328188349099,0.782070
1328188409099,0.783168
1328188469099,0.774658
1328188529099,0.790632
1328188589099,0.779387
1328188649099,0.781496
1328188709099,0.774638
1328188769099,0.782046
1328188829099,0.781902
1328188889099,0.783241
1328188949099,0.780901
1328189009099,0.776719
1328189069099,0.773804
1328189129099,0.785125
1328189189099,0.774642
1328189249099,0.780363
1328189309099,0.786645
1328189369099,0.778931
1328189429099,0.779287
1328189489099,0.781956
1328189549099,0.773864
1328189609099,0.786820
1328189669099,0.780098
1328189729099,0.789538
1328189789099,0.785529
1328189849099,0.785192
1328189909099,0.784173
1328189969099,0.789763
1328190029099,0.785663
1328190089099,0.787835
1328190149099,0.789792
1328190209099,0.783323
1328190269099,0.778430
1328190329099,0.785529
1328190389099,0.793508
1328190449099,0.788243
1328190509099,0.789387
1328190569099,0.789206
1328190629099,0.784067
1328190689099,0.789926
1328190749099,0.782587
1328190809099,0.779433
1328190869099,0.786536
1328190929099,0.796788
1328190989099,0.786935
1328191049099,0.782168
1328191109099,0.786174
1328191169099,0.788867
1328191229110,0.787927
1328191289110,0.788108
1328191349110,0.785950
1328191409110,0.787099
1328191469110,0.783995
1328191529110,0.787908
1328191589110,0.788656
1328191649110,0.787070
1328191709110,0.785957
1328191769110,0.789753
1328191829110,0.790207
1328191889110,0.791497
1328191949110,0.790674
1328192009110,0.784626
1328192069110,0.782832
1328192129110,0.785282
1328192189110,0.787789
1328192249110,0.781398
1328192309110,0.784882
1328192369110,0.785207
1328192429110,0.781961
1328192489110,0.786461
1328192549110,0.788089
1328192609110,0.789587
1328192669110,0.787460
1328192729110,0.786605
1328192789110,0.781877
1328192849110,0.782076
1328192909110,0.781222
1328192969110,0.778150
1328193029110,0.786294
1328193089110,0.777294
1328193149110,0.782498
1328193209110,0.782493
1328193269110,0.786167
1328193329110,0.786719
1328193389110,0.783406
1328193449110,0.784874
1328193509110,0.779956
1328193569110,0.783488
1328193629110,0.786307
1328193689110,0.785952
1328193749110,0.785023
1328193809110,0.789765
1328193869110,0.788758
1328193929110,0.786132
1328193989110,0.783261
1328194049110,0.793440
1328194109110,0.780426
1328194169110,0.787935
1328194229110,0.784287
1328194289110,0.786851
1328194349110,0.782919
1328194409110,0.780647
1328194469110,0.786437
1328194529110,0.786455
1328194589110,0.789326
1328194649110,0.792251
1328194709110,0.784648
1328194769110,0.785115
1328194829122,0.782754
1328194889122,0.783703
1328194949122,0.785792
1328195009122,0.788302
1328195069122,0.789424
1328195129122,0.791999
1328195189122,0.792203
1328195249122,0.794222
1328195309122,0.791205
1328195369122,0.791158
1328195429122,0.782099
1328195489122,0.791914
1328195549122,0.784016
1328195609122,0.784428
1328195669122,0.789264
1328195729122,0.780911
1328195789122,0.787758
1328195849122,0.782321
1328195909122,0.785299
1328195969122,0.776970
1328196029122,0.781483
1328196089122,0.781920
1328196149122,0.781059
1328196209122,0.782912
1328196269122,0.785172
1328196329122,0.782943
1328196389122,0.778587
1328196449122,0.777250
1328196509122,0.776619
1328196569122,0.780905
1328196629122,0.784381
1328196689122,0.786099
1328196749122,0.773373
1328196809122,0.781865
1328196869122,0.774656
1328196929122,0.781585
1328196989122,0.773647
1328197049122,0.779812
1328197109122,0.777831
1328197169122,0.783352
1328197229122,0.781724
1328197289122,0.783781
1328197349122,0.784367
1328197409122,0.781935
1328197469122,0.782641
1328197529122,0.783699
1328197589122,0.773432
1328197649122,0.779394
1328197709122,0.778846
1328197769122,0.778334
1328197829122,0.782653
1328197889122,0.783543
1328197949122,0.781319
1328198009122,0.782063
1328198069122,0.777611
1328198129122,0.780288
1328198189122,0.775410
1328198249122,0.781318
1328198309122,0.777275
1328198369122,0.778943
1328198429134,0.781503
1328198489134,0.780062
1328198549134,0.779820
1328198609134,0.783290
1328198669134,0.775204
1328198729134,0.785892
1328198789134,0.783752
1328198849134,0.773866
1328198909134,0.782305
1328198969134,0.775762
1328199029134,0.778415
1328199089134,0.783229
1328199149134,0.779467
1328199209134,0.768798
1328199269134,0.778736
1328199329134,0.785616
1328199389134,0.784462
1328199449134,0.783726
1328199509134,0.785319
1328199569134,0.788601
1328199629134,0.789337
1328199689134,0.789135
1328199749134,0.789067
1328199809134,0.786367
1328199869134,0.788525
1328199929134,0.783459
1328199989134,0.788134
1328200049134,0.789334
1328200109134,0.783892
1328200169134,0.779150
1328200229134,0.786889
1328200289134,0.784225
1328200349134,0.783783
1328200409134,0.783041
1328200469134,0.783970
1328200529134,0.778156
1328200589134,0.785329
1328200649134,0.785017
1328200709134,0.783159
1328200769134,0.788695
1328200829134,0.780163
1328200889134,0.788954
1328200949134,0.783699
1328201009134,0.782789
1328201069134,0.789209
1328201129134,0.783157
1328201189134,0.791818
1328201249134,0.783645
1328201309134,0.781820
1328201369134,0.785105
1328201429134,0.781057
1328201489134,0.779673
1328201549134,0.782740
1328201609134,0.783463
1328201669134,0.780569
1328201729134,0.785692
1328201789134,0.790783
1328201849134,0.788383
1328201909134,0.784032
1328201969134,0.785082
1328202029145,0.789217
1328202089145,0.781566
1328202149145,0.771965
1328202209145,0.787892
1328202269145,0.780485
1328202329145,0.780347
1328202389145,0.789241
1328202449145,0.777143
1328202509145,0.775178
1328202569145,0.779204
1328202629145,0.784947
1328202689145,0.783609
1328202749145,0.779926
1328202809145,0.786619
1328202869145,0.789494
1328202929145,0.789540
1328202989145,0.778232
1328203049145,0.781008
1328203109145,0.777095
1328203169145,0.786025
1328203229145,0.783389
1328203289145,0.778978
1328203349145,0.783153